Total_Precipitation_Accumulation
0.00 0.00 0.01 0.03 0.06 0.03 0.14 0.17 0.18 0.12 0.09 0.16 0.43 0.49 0.50 0.53 0.58 0.63 0.59 0.86 0.59 0.96 0.78 1.36 2.69 2.04 1.51 0.96 0.95 0.95 0.98 0.41 0.14 0.02 0.00 0.00 0.01 0.01 0.00 0.01 0.01 0.00 0.00
0.00 0.00 0.00 0.02 0.03 0.07 0.16 0.20 0.23 0.26 0.19 0.20 0.27 0.37 0.54 0.64 0.56 0.55 0.61 0.75 0.73 0.84 1.18 1.39 2.47 2.94 2.53 1.56 1.05 1.27 0.99 0.70 0.20 0.04 0.02 0.01 0.01 0.01 0.00 0.01 0.00 0.01 0.00
0.00 0.00 0.00 0.02 0.03 0.11 0.24 0.37 0.36 0.29 0.22 0.14 0.21 0.40 0.51 0.51 0.49 0.46 0.54 0.50 0.59 0.66 0.90 1.64 2.00 1.44 1.23 1.45 1.44 1.21 0.99 0.97 0.48 0.10 0.03 0.01 0.01 0.00 0.01 0.01 0.00 0.01 0.00
0.00 0.00 0.01 0.00 0.02 0.11 0.21 0.38 0.39 0.25 0.18 0.10 0.13 0.18 0.33 0.48 0.46 0.43 0.40 0.43 0.43 0.44 0.44 0.86 2.80 2.17 1.09 1.25 1.12 0.88 0.86 0.67 0.46 0.13 0.04 0.02 0.01 0.01 0.01 0.01 0.01 0.00 0.00
0.01 0.01 0.00 0.00 0.01 0.04 0.13 0.23 0.31 0.26 0.18 0.13 0.19 0.23 0.29 0.26 0.34 0.38 0.31 0.28 0.35 0.45 0.69 0.73 1.71 1.67 1.14 0.84 1.00 0.86 0.54 0.45 0.38 0.15 0.05 0.02 0.02 0.01 0.01 0.01 0.01 0.00 0.01
0.01 0.04 0.02 0.01 0.04 0.02 0.04 0.05 0.10 0.16 0.13 0.15 0.28 0.37 0.45 0.31 0.34 0.36 0.28 0.29 0.20 0.25 0.40 1.00 1.12 0.95 1.03 1.22 0.76 0.70 0.66 0.35 0.22 0.12 0.05 0.03 0.02 0.01 0.01 0.01 0.01 0.01 0.01
0.08 0.02 0.10 0.13 0.12 0.10 0.03 0.04 0.05 0.04 0.04 0.10 0.36 0.77 0.84 0.60 0.39 0.32 0.24 0.18 0.19 0.19 0.19 0.27 0.65 0.49 0.38 0.99 1.04 0.84 0.70 0.57 0.28 0.09 0.04 0.03 0.03 0.02 0.01 0.01 0.01 0.01 0.01
0.22 0.36 0.19 0.09 0.07 0.25 0.19 0.05 0.08 0.09 0.04 0.07 0.15 0.51 0.83 0.78 0.57 0.45 0.33 0.17 0.12 0.19 0.24 0.23 0.31 0.46 0.47 0.35 0.41 0.65 0.76 0.80 0.64 0.21 0.06 0.04 0.03 0.02 0.02 0.01 0.01 0.01 0.01
0.10 0.32 0.22 0.29 0.42 0.39 0.31 0.21 0.13 0.07 0.10 0.07 0.08 0.19 0.35 0.36 0.28 0.32 0.33 0.20 0.10 0.15 0.17 0.28 0.26 0.31 0.43 0.71 0.42 0.30 0.43 0.61 0.81 0.60 0.11 0.03 0.02 0.02 0.02 0.01 0.01 0.01 0.01
0.07 0.13 0.21 0.16 0.24 0.35 0.39 0.34 0.25 0.16 0.24 0.12 0.09 0.08 0.07 0.05 0.09 0.22 0.28 0.33 0.25 0.14 0.16 0.19 0.20 0.12 0.12 0.23 0.50 0.32 0.18 0.21 0.32 0.73 0.43 0.04 0.02 0.02 0.01 0.01 0.01 0.01 0.02
0.03 0.07 0.13 0.17 0.13 0.17 0.24 0.29 0.23 0.21 0.23 0.19 0.10 0.09 0.08 0.05 0.08 0.12 0.26 0.33 0.35 0.28 0.19 0.20 0.20 0.17 0.09 0.03 0.09 0.25 0.23 0.12 0.12 0.28 0.50 0.09 0.02 0.01 0.01 0.01 0.01 0.01 0.02
0.06 0.10 0.20 0.22 0.20 0.10 0.14 0.14 0.15 0.18 0.18 0.15 0.16 0.12 0.08 0.06 0.04 0.05 0.10 0.20 0.27 0.29 0.23 0.24 0.26 0.18 0.14 0.08 0.02 0.02 0.09 0.13 0.08 0.08 0.23 0.10 0.02 0.01 0.01 0.00 0.01 0.01 0.02
0.07 0.12 0.18 0.14 0.11 0.12 0.20 0.29 0.24 0.14 0.13 0.12 0.10 0.12 0.12 0.07 0.05 0.07 0.13 0.16 0.23 0.30 0.31 0.23 0.17 0.20 0.13 0.09 0.08 0.09 0.03 0.01 0.03 0.03 0.06 0.06 0.04 0.02 0.01 0.01 0.01 0.02 0.01
0.02 0.09 0.20 0.23 0.21 0.37 0.39 0.37 0.30 0.27 0.24 0.24 0.22 0.17 0.11 0.07 0.08 0.08 0.10 0.15 0.20 0.18 0.16 0.12 0.10 0.08 0.10 0.08 0.09 0.13 0.08 0.06 0.03 0.01 0.01 0.02 0.03 0.03 0.01 0.01 0.01 0.02 0.04
0.14 0.22 0.27 0.24 0.22 0.33 0.34 0.24 0.23 0.36 0.53 0.47 0.50 0.46 0.33 0.31 0.23 0.13 0.09 0.10 0.15 0.17 0.12 0.07 0.10 0.08 0.08 0.06 0.07 0.08 0.07 0.06 0.07 0.05 0.03 0.02 0.03 0.02 0.02 0.02 0.01 0.02 0.02
0.21 0.27 0.27 0.28 0.30 0.33 0.29 0.21 0.22 0.42 0.62 0.56 0.54 0.80 0.79 0.62 0.65 0.54 0.33 0.20 0.14 0.11 0.09 0.06 0.07 0.08 0.11 0.14 0.14 0.09 0.05 0.09 0.07 0.05 0.05 0.06 0.07 0.05 0.03 0.02 0.02 0.01 0.02
0.29 0.28 0.29 0.34 0.26 0.23 0.27 0.19 0.17 0.24 0.58 0.78 0.72 0.86 1.14 1.00 0.52 0.51 0.74 0.46 0.37 0.29 0.12 0.06 0.10 0.15 0.11 0.07 0.11 0.13 0.09 0.07 0.06 0.08 0.09 0.09 0.09 0.11 0.13 0.05 0.02 0.02 0.02
0.48 0.46 0.35 0.34 0.30 0.36 0.31 0.22 0.16 0.21 0.36 0.67 0.75 0.65 0.92 0.97 0.71 0.40 0.32 0.31 0.34 0.36 0.23 0.09 0.08 0.12 0.11 0.07 0.11 0.17 0.14 0.13 0.12 0.16 0.11 0.08 0.07 0.05 0.07 0.06 0.03 0.02 0.01
0.59 0.60 0.55 0.49 0.32 0.35 0.29 0.24 0.21 0.18 0.28 0.39 0.60 0.98 1.04 0.92 0.78 0.60 0.35 0.32 0.35 0.29 0.28 0.28 0.17 0.11 0.11 0.14 0.23 0.31 0.25 0.15 0.09 0.11 0.10 0.09 0.08 0.08 0.10 0.10 0.06 0.04 0.03
0.87 0.75 0.65 0.70 0.83 0.73 0.55 0.46 0.30 0.30 0.30 0.47 0.72 1.02 1.20 1.00 0.85 0.77 0.58 0.36 0.38 0.43 0.38 0.42 0.36 0.24 0.19 0.20 0.28 0.20 0.24 0.29 0.22 0.16 0.20 0.22 0.19 0.18 0.18 0.16 0.15 0.16 0.16
1.35 1.05 0.91 0.64 0.59 0.60 0.58 0.55 0.47 0.41 0.49 0.41 0.31 0.44 0.71 0.91 0.96 0.79 0.74 0.66 0.55 0.53 0.58 0.63 0.59 0.58 0.47 0.42 0.35 0.29 0.37 0.38 0.43 0.41 0.30 0.29 0.30 0.30 0.29 0.29 0.24 0.22 0.21
0.93 1.11 0.97 0.74 0.64 0.42 0.83 0.85 0.68 0.57 0.47 0.28 0.18 0.13 0.29 0.53 0.67 0.86 0.79 0.80 0.88 0.84 0.85 0.76 0.75 0.62 0.50 0.42 0.47 0.51 0.57 0.71 0.79 0.60 0.49 0.62 0.55 0.51 0.50 0.44 0.55 0.43 0.39
1.15 0.98 1.20 0.94 0.63 0.60 0.79 0.97 0.95 0.42 0.28 0.36 0.38 0.23 0.12 0.25 0.43 0.46 0.65 0.79 0.84 0.87 0.92 0.97 0.97 0.94 0.88 0.74 0.71 0.74 0.74 0.76 0.72 0.72 0.94 1.13 0.95 0.90 0.74 0.73 0.64 0.42 0.44
1.30 1.33 0.96 1.06 1.14 0.76 0.85 0.84 0.61 0.32 0.33 0.36 0.38 0.35 0.22 0.14 0.24 0.30 0.28 0.34 0.47 0.66 0.82 0.81 0.80 0.86 0.88 0.96 0.92 0.86 0.96 1.16 1.28 1.35 1.34 1.27 0.92 0.86 0.75 0.66 0.75 0.59 0.59
1.14 1.16 1.25 0.92 0.95 1.21 1.26 1.25 1.14 0.61 0.45 0.40 0.40 0.39 0.41 0.32 0.40 0.36 0.25 0.28 0.27 0.32 0.49 0.64 0.70 0.76 0.85 0.98 1.01 0.90 0.98 0.94 1.12 1.04 0.92 0.85 0.86 0.81 0.81 0.71 0.68 0.64 0.55
1.42 1.25 1.12 1.21 1.21 1.09 1.31 1.36 1.35 1.31 1.15 0.96 0.64 0.65 0.72 0.57 0.59 0.45 0.26 0.20 0.27 0.33 0.31 0.33 0.36 0.37 0.44 0.61 0.76 0.70 0.79 0.84 0.81 0.79 0.64 0.63 0.72 0.64 0.77 0.73 0.61 0.56 0.52